GAP2403 RPVE-RPVM

Flight info

Callsign GAP2403
Flight time 0h 36m
Altitude 19000
Route KLO8A KLO TR15 ROX B473 DUDAR DUDAR3P
Aircraft DH8D/M-SDE2E3FGRY/H

Departure

Time 2026-05-05 01:01
Airport Godofredo P. Ramos Airport (RPVE)

Arrival

Time 2026-05-05 01:37
Airport Mactan Cebu International Airport (RPVM)
Time Latitude Longitude Altitude Speed Heading
2026-05-05 00:48 11.92452 121.96335 31 ft 0 kts 63°
2026-05-05 00:52 11.92447 121.96323 31 ft 2 kts 70°
2026-05-05 00:52 11.92442 121.96308 31 ft 2 kts 62°
2026-05-05 00:53 11.92432 121.96298 31 ft 2 kts 24°
2026-05-05 00:53 11.92419 121.96294 31 ft 0 kts
2026-05-05 00:53 11.92423 121.96294 31 ft 1 kts 346°
2026-05-05 00:53 11.92447 121.96281 31 ft 7 kts 333°
2026-05-05 00:54 11.92483 121.96261 31 ft 3 kts 332°
2026-05-05 00:54 11.92491 121.96257 31 ft 0 kts 332°
2026-05-05 00:56 11.92491 121.96256 31 ft 0 kts 332°
2026-05-05 00:56 11.92501 121.96252 31 ft 2 kts 333°
2026-05-05 00:56 11.92530 121.96236 31 ft 6 kts 333°
2026-05-05 00:57 11.92576 121.96212 31 ft 7 kts 333°
2026-05-05 00:57 11.92629 121.96196 31 ft 7 kts 349°
2026-05-05 00:57 11.92680 121.96175 31 ft 9 kts 333°
2026-05-05 00:57 11.92748 121.96139 31 ft 11 kts 333°
2026-05-05 00:58 11.92798 121.96088 31 ft 10 kts 269°
2026-05-05 00:58 11.92762 121.96007 31 ft 15 kts 243°
2026-05-05 00:58 11.92705 121.95892 31 ft 20 kts 243°
2026-05-05 00:58 11.92633 121.95750 31 ft 24 kts 243°
2026-05-05 00:59 11.92551 121.95589 31 ft 26 kts 242°
2026-05-05 00:59 11.92463 121.95411 31 ft 28 kts 241°
2026-05-05 00:59 11.92369 121.95225 31 ft 29 kts 244°
2026-05-05 00:59 11.92298 121.95087 31 ft 17 kts 234°
2026-05-05 01:00 11.92239 121.95023 31 ft 6 kts 248°
2026-05-05 01:00 11.92253 121.95007 31 ft 4 kts 26°
2026-05-05 01:00 11.92268 121.95024 31 ft 1 kts 61°
2026-05-05 01:00 11.92287 121.95062 31 ft 20 kts 63°
2026-05-05 01:01 11.92501 121.95487 31 ft 112 kts 63°
2026-05-05 01:01 11.92921 121.96330 303 ft 144 kts 63°
2026-05-05 01:01 11.93392 121.97298 891 ft 161 kts 64°
2026-05-05 01:01 11.93911 121.98340 1616 ft 171 kts 64°
2026-05-05 01:02 11.94453 121.99410 2365 ft 176 kts 64°
2026-05-05 01:02 11.95014 122.00511 3118 ft 177 kts 64°
2026-05-05 01:02 11.95576 122.01617 3809 ft 180 kts 64°
2026-05-05 01:02 11.95887 122.02856 4456 ft 185 kts 96°
2026-05-05 01:03 11.95300 122.04024 5081 ft 192 kts 123°
2026-05-05 01:03 11.94470 122.05100 5732 ft 195 kts 123°
2026-05-05 01:03 11.93624 122.06187 6371 ft 198 kts 124°
2026-05-05 01:03 11.92769 122.07282 7007 ft 201 kts 124°
2026-05-05 01:04 11.91892 122.08403 7627 ft 203 kts 125°
2026-05-05 01:04 11.90128 122.10656 8853 ft 206 kts 126°
2026-05-05 01:04 11.89235 122.11796 9421 ft 207 kts 126°
2026-05-05 01:05 11.88327 122.12955 9995 ft 209 kts 126°
2026-05-05 01:05 11.87425 122.14105 10597 ft 211 kts 126°
2026-05-05 01:05 11.86501 122.15284 11230 ft 216 kts 126°
2026-05-05 01:05 11.85536 122.16518 11753 ft 233 kts 126°
2026-05-05 01:06 11.84500 122.17842 12372 ft 245 kts 126°
2026-05-05 01:06 11.83422 122.19218 13089 ft 251 kts 126°
2026-05-05 01:06 11.82330 122.20612 13864 ft 255 kts 126°
2026-05-05 01:06 11.81228 122.22016 14668 ft 258 kts 126°
2026-05-05 01:07 11.80102 122.23453 15455 ft 262 kts 127°
2026-05-05 01:07 11.78956 122.24912 16281 ft 265 kts 127°
2026-05-05 01:07 11.77814 122.26366 17084 ft 268 kts 127°
2026-05-05 01:07 11.76642 122.27859 17892 ft 273 kts 127°
2026-05-05 01:08 11.75447 122.29381 18614 ft 281 kts 127°
2026-05-05 01:08 11.74178 122.31003 18854 ft 306 kts 127°
2026-05-05 01:08 11.72786 122.32782 18923 ft 333 kts 127°
2026-05-05 01:08 11.71289 122.34696 18936 ft 354 kts 127°
2026-05-05 01:09 11.69730 122.36688 18922 ft 361 kts 127°
2026-05-05 01:09 11.68384 122.38818 18890 ft 362 kts 112°
2026-05-05 01:09 11.67703 122.41286 18926 ft 362 kts 102°
2026-05-05 01:09 11.67125 122.43795 18931 ft 363 kts 102°
2026-05-05 01:10 11.66550 122.46312 18926 ft 364 kts 102°
2026-05-05 01:10 11.65973 122.48836 18916 ft 365 kts 102°
2026-05-05 01:10 11.65401 122.51327 18911 ft 366 kts 102°
2026-05-05 01:10 11.64813 122.53879 18911 ft 366 kts 102°
2026-05-05 01:11 11.64235 122.56379 18914 ft 366 kts 102°
2026-05-05 01:11 11.63645 122.58929 18917 ft 366 kts 102°
2026-05-05 01:11 11.63062 122.61438 18916 ft 366 kts 102°
2026-05-05 01:11 11.62473 122.63969 18915 ft 366 kts 102°
2026-05-05 01:12 11.61882 122.66504 18919 ft 366 kts 103°
2026-05-05 01:12 11.61293 122.69031 18916 ft 367 kts 103°
2026-05-05 01:12 11.60710 122.71532 18910 ft 367 kts 103°
2026-05-05 01:12 11.59984 122.74040 18874 ft 368 kts 112°
2026-05-05 01:13 11.58471 122.76102 18906 ft 369 kts 136°
2026-05-05 01:13 11.56322 122.77583 18928 ft 370 kts 147°
2026-05-05 01:13 11.54112 122.78906 18910 ft 371 kts 148°
2026-05-05 01:13 11.51864 122.80234 18901 ft 371 kts 148°
2026-05-05 01:14 11.49600 122.81567 18897 ft 372 kts 148°
2026-05-05 01:14 11.48112 122.82444 18902 ft 372 kts 148°
2026-05-05 01:14 11.45861 122.83770 18902 ft 372 kts 148°
2026-05-05 01:14 11.42888 122.85521 18899 ft 372 kts 148°
2026-05-05 01:15 11.40643 122.86842 18898 ft 372 kts 148°
2026-05-05 01:15 11.38399 122.88164 18897 ft 372 kts 148°
2026-05-05 01:15 11.36158 122.89483 18895 ft 372 kts 148°
2026-05-05 01:15 11.33907 122.90807 18895 ft 372 kts 148°
2026-05-05 01:16 11.31647 122.92138 18895 ft 372 kts 148°
2026-05-05 01:16 11.29407 122.93456 18896 ft 372 kts 148°
2026-05-05 01:16 11.27172 122.94771 18898 ft 372 kts 148°
2026-05-05 01:16 11.24917 122.96098 18903 ft 372 kts 148°
2026-05-05 01:17 11.22694 122.97405 18908 ft 372 kts 148°
2026-05-05 01:17 11.20427 122.98737 18908 ft 371 kts 148°
2026-05-05 01:17 11.18202 123.00045 18908 ft 371 kts 148°
2026-05-05 01:17 11.15960 123.01363 18907 ft 371 kts 148°
2026-05-05 01:18 11.13712 123.02684 18905 ft 371 kts 148°
2026-05-05 01:18 11.11455 123.04010 18898 ft 371 kts 148°
2026-05-05 01:18 11.09222 123.05321 18906 ft 371 kts 148°
2026-05-05 01:18 11.06969 123.06645 18906 ft 371 kts 148°
2026-05-05 01:19 11.04742 123.07954 18907 ft 371 kts 148°
2026-05-05 01:19 11.02493 123.09274 18903 ft 372 kts 148°
2026-05-05 01:19 11.00265 123.10581 18901 ft 372 kts 148°
2026-05-05 01:19 10.98009 123.11906 18904 ft 372 kts 148°
2026-05-05 01:20 10.95778 123.13215 18907 ft 371 kts 147°
2026-05-05 01:20 10.93519 123.14540 18907 ft 368 kts 148°
2026-05-05 01:20 10.91318 123.15832 18924 ft 368 kts 147°
2026-05-05 01:20 10.89090 123.17139 18931 ft 367 kts 148°
2026-05-05 01:21 10.86873 123.18439 18930 ft 364 kts 147°
2026-05-05 01:21 10.84680 123.19725 18942 ft 365 kts 148°
2026-05-05 01:21 10.82475 123.21018 18952 ft 366 kts 148°
2026-05-05 01:21 10.80244 123.22325 18960 ft 367 kts 148°
2026-05-05 01:22 10.78049 123.23614 18967 ft 367 kts 147°
2026-05-05 01:22 10.75830 123.24931 18975 ft 362 kts 147°
2026-05-05 01:22 10.73717 123.26260 18729 ft 359 kts 142°
2026-05-05 01:22 10.71833 123.27908 18356 ft 359 kts 135°
2026-05-05 01:23 10.69986 123.29638 17909 ft 359 kts 135°
2026-05-05 01:23 10.68159 123.31351 17448 ft 359 kts 135°
2026-05-05 01:23 10.66313 123.33077 16980 ft 358 kts 135°
2026-05-05 01:23 10.64500 123.34769 16523 ft 355 kts 135°
2026-05-05 01:24 10.62668 123.36477 16060 ft 352 kts 135°
2026-05-05 01:24 10.60889 123.38132 15610 ft 349 kts 135°
2026-05-05 01:24 10.59079 123.39814 15155 ft 347 kts 135°
2026-05-05 01:24 10.57308 123.41459 14701 ft 344 kts 135°
2026-05-05 01:25 10.55562 123.43079 14257 ft 342 kts 136°
2026-05-05 01:25 10.53805 123.44709 13807 ft 340 kts 135°
2026-05-05 01:25 10.52053 123.46333 13400 ft 335 kts 136°
2026-05-05 01:25 10.50347 123.47913 12990 ft 333 kts 136°
2026-05-05 01:26 10.48648 123.49487 12575 ft 331 kts 136°
2026-05-05 01:26 10.46949 123.51061 12149 ft 329 kts 135°
2026-05-05 01:26 10.45257 123.52629 11727 ft 328 kts 135°
2026-05-05 01:26 10.43607 123.54157 11307 ft 312 kts 135°
2026-05-05 01:27 10.42048 123.55599 10919 ft 296 kts 135°
2026-05-05 01:27 10.40556 123.56977 10547 ft 282 kts 135°
2026-05-05 01:27 10.39118 123.58302 10199 ft 279 kts 135°
2026-05-05 01:27 10.37671 123.59637 9849 ft 278 kts 135°
2026-05-05 01:28 10.36248 123.60952 9491 ft 275 kts 135°
2026-05-05 01:28 10.34835 123.62258 9144 ft 272 kts 135°
2026-05-05 01:28 10.33464 123.63567 8799 ft 269 kts 133°
2026-05-05 01:28 10.32161 123.64899 8459 ft 266 kts 132°
2026-05-05 01:29 10.30863 123.66232 8120 ft 266 kts 132°
2026-05-05 01:29 10.29552 123.67576 7776 ft 266 kts 132°
2026-05-05 01:29 10.28250 123.68909 7439 ft 264 kts 132°
2026-05-05 01:29 10.26953 123.70234 7090 ft 262 kts 132°
2026-05-05 01:30 10.25693 123.71519 6761 ft 258 kts 131°
2026-05-05 01:30 10.24427 123.72808 6432 ft 254 kts 131°
2026-05-05 01:30 10.23186 123.74071 6113 ft 251 kts 131°
2026-05-05 01:30 10.21964 123.75315 5792 ft 249 kts 131°
2026-05-05 01:31 10.20735 123.76564 5469 ft 246 kts 131°
2026-05-05 01:31 10.19534 123.77786 5151 ft 239 kts 131°
2026-05-05 01:31 10.18391 123.78947 4855 ft 228 kts 131°
2026-05-05 01:31 10.17282 123.80071 4560 ft 218 kts 131°
2026-05-05 01:32 10.16386 123.81266 4065 ft 213 kts 107°
2026-05-05 01:32 10.16463 123.82657 3777 ft 200 kts 63°
2026-05-05 01:32 10.17303 123.83784 3529 ft 201 kts 49°
2026-05-05 01:32 10.18243 123.84809 3268 ft 195 kts 48°
2026-05-05 01:33 10.19177 123.85800 3014 ft 190 kts 47°
2026-05-05 01:33 10.19485 123.86123 2930 ft 189 kts 47°
2026-05-05 01:33 10.21008 123.87704 2521 ft 186 kts 46°
2026-05-05 01:33 10.21911 123.88631 2273 ft 178 kts 46°
2026-05-05 01:34 10.22721 123.89457 2054 ft 155 kts 45°
2026-05-05 01:34 10.23432 123.90187 1870 ft 133 kts 46°
2026-05-05 01:34 10.24042 123.90819 1709 ft 122 kts 47°
2026-05-05 01:34 10.24631 123.91436 1552 ft 120 kts 47°
2026-05-05 01:35 10.25222 123.92052 1408 ft 123 kts 45°
2026-05-05 01:35 10.25832 123.92681 1248 ft 126 kts 46°
2026-05-05 01:35 10.26444 123.93302 1082 ft 124 kts 46°
2026-05-05 01:35 10.27051 123.93918 917 ft 122 kts 46°
2026-05-05 01:36 10.27645 123.94537 765 ft 123 kts 46°
2026-05-05 01:36 10.28257 123.95167 597 ft 124 kts 45°
2026-05-05 01:36 10.28874 123.95768 433 ft 124 kts 41°
2026-05-05 01:36 10.29479 123.96383 276 ft 124 kts 43°
2026-05-05 01:37 10.30094 123.97011 127 ft 126 kts 41°
2026-05-05 01:37 10.30727 123.97644 42 ft 123 kts 43°
2026-05-05 01:37 10.31167 123.98086 37 ft 38 kts 44°
2026-05-05 01:37 10.31309 123.98229 37 ft 21 kts 45°
2026-05-05 01:38 10.31383 123.98293 37 ft 11 kts 17°
2026-05-05 01:38 10.31446 123.98270 37 ft 10 kts 315°
2026-05-05 01:38 10.31500 123.98214 38 ft 11 kts 315°
2026-05-05 01:38 10.31562 123.98151 38 ft 12 kts 314°
2026-05-05 01:39 10.31623 123.98118 38 ft 5 kts 10°
2026-05-05 01:39 10.31652 123.98133 38 ft 3 kts 12°
2026-05-05 01:39 10.31674 123.98122 38 ft 4 kts 316°
2026-05-05 01:39 10.31691 123.98104 38 ft 1 kts 314°
2026-05-05 01:40 10.31694 123.98100 38 ft 0 kts 314°